Regional Weather Roundup
Issued by NWS State College, PA

Home | Current Version | Previous Version | Graphics & Text | Print | Product List | Glossary On
Versions: 1 2 3 4 5 6 7 8 9 10 11 12 13 14 15 16 17 18 19 20 21 22 23 24 25 26 27 28 29 30 31 32 33 34 35 36 37 38 39 40 41 42 43 44 45 46 47 48 49 50
000
ASUS41 KCTP 210003
RWRCTP

REGIONAL WEATHER ROUNDUP
NATIONAL WEATHER SERVICE STATE COLLEGE PA
800 PM EDT MON APR 20 2015

Note: "fair" indicates few or no clouds below 12,000 feet with no
significant weather and/or obstructions to visibility.

* = STATION THAT DOES NOT REPORT PRECIPITATION /E.G. RAIN...SNOW...ETC/
    THUNDER OR FOG.

PAZ002>004-007>009-013>016-020>023-029>032-210100-
WESTERN PENNSYLVANIA

CITY           SKY/WX    TMP DP  RH WIND       PRES   REMARKS
ERIE           CLOUDY    50  43  77 SW12G23   29.52R
MEADVILLE      CLOUDY    57  51  80 VRB5      29.50R
FRANKLIN*      CLOUDY    54  48  82 S14G20    29.54S
NEW CASTLE     FAIR      56  55  96 S7        29.54R
BEAVER COUNTY  LGT RAIN  55  54  94 W6        29.53F
BUTLER*        MOCLDY    55  50  82 W8        29.55F
PITTSBURGH INT MOCLDY    58  53  84 W8        29.54R
PITTSBURGH     MOCLDY    59  47  64 W17G25    29.54R
INDIANA*       MOCLDY    61  48  63 W13G22    29.56S
LATROBE        MOCLDY    61  48  63 W12G23    29.56R
WASHINGTON CO* PTCLDY    57  48  72 W7G17     29.57R
$$

PAZ004>006-010>012-017>019-024>028-033>037-041-042-045-046-049>053-210100-
CENTRAL PENNSYLVANIA

CITY           SKY/WX    TMP DP  RH WIND       PRES   REMARKS
BRADFORD       MOCLDY    55  49  80 W8G22     29.53R
DUBOIS         MOCLDY    59  47  64 W18G28    29.52R
CLEARFIELD     MOCLDY    63  52  67 W6        29.49F
JOHNSTOWN      TSTM      56  47  71 W24G41    29.57R
ALTOONA        MOCLDY    62  56  80 S7        29.50R THUNDER
STATE COLLEGE  TSTM      59  55  88 S6G26     29.50R
WILLIAMSPORT   MOCLDY    64  55  72 E12       29.50S
SELINSGROVE    MOCLDY    65  57  75 VRB3      29.49F
FT INDIANTOWN  PTCLDY    60  58  92 VRB6      29.52F
CAPITAL CITY   PTCLDY    63  58  83 SE7       29.49F
HARRISBURG     PTCLDY    64  58  80 SE5       29.47F
YORK           CLEAR     69  60  73 SE8       29.48F
$$

PAZ038>040-043-044-047-048-054-055-060>062-067>071-210100-
EASTERN PENNSYLVANIA

CITY           SKY/WX    TMP DP  RH WIND       PRES   REMARKS
SCRANTON       CLOUDY    59  52  77 VRB6      29.56F
MOUNT POCONO   FOG       52  51  97 E10       29.60F VSB 1/4
ALLENTOWN      CLOUDY    60  57  89 E10       29.58F
QUAKERTOWN*    CLOUDY    61  59  94 E8        29.58F
READING        MOCLDY    64  58  80 VRB3      29.53F
LANCASTER      PTCLDY    69  60  73 SE8       29.51F
COATESVILLE    MOCLDY    68  63  83 SE5       29.56F
POTTSTOWN      CLOUDY    65  61  87 NE9       29.57F
BLUE BELL      CLOUDY    72  63  73 S3        29.57S
DOYLESTOWN     CLOUDY    59  59 100 VRB3      29.58F
WILLOW GROVE   NOT AVBL
NORTH PHILA    MOCLDY    71  60  68 SE10      29.59S
PHILADELPHIA   MOCLDY    70  61  73 S12       29.57F
$$



USA.gov is the U.S. government's official web portal to all federal, state and local government web resources and services.